This demonstration page uses our WeatherBlox Daily Observations layout. Learn more.

41.55636, -103.73856

Hourly Observations for May 4, 2018

Temp ( °F °C ) Dew Point ( °F °C ) Humidity (%) Winds ( mph kmh ) Pressure ( in mb ) Visibility ( mi km ) Precip ( " mm )
12:58 am 00:58 Mostly Clear 40 4.4 38 3.1 91 91 W 9 15 30.23 1024 10 16.0934 N/A
1:58 am 01:58 Mostly Clear 40 4.6 37 2.6 87 87 WNW 12 19 30.23 1024 10 16.0934 N/A
2:58 am 02:58 Clear 39 3.9 35 1.4 84 84 WNW 10 17 30.22 1023 10 16.0934 N/A
3:58 am 03:58 Clear 38 3.4 34 1.2 86 86 WNW 14 22 30.24 1024 10 16.0934 N/A
4:58 am 04:58 Clear 38 3.2 34 0.9 85 85 WNW 13 20 30.25 1025 10 16.0934 N/A
5:58 am 05:58 Sunny 37 2.8 33 0.8 87 87 WNW 13 20 30.28 1025 10 16.0934 0 0
6:58 am 06:58 Sunny 41 4.9 37 2.5 85 85 WNW 10 17 30.27 1025 10 16.0934 N/A
7:58 am 07:58 Sunny 49 9.5 40 4.4 71 71 NW 14 22 30.28 1025 10 16.0934 N/A
8:58 am 08:58 Sunny 55 12.9 41 5.2 60 60 NW 10 17 30.26 1025 10 16.0934 N/A
9:58 am 09:58 Sunny 59 15.2 37 2.7 43 43 NW 12 19 30.25 1024 10 16.0934 N/A
10:58 am 10:58 Sunny 61 16.3 35 1.7 38 38 WNW 15 24 30.26 1025 10 16.0934 N/A
11:58 am 11:58 Sunny 63 17 33 0.6 33 33 WNW 10 17 30.25 1024 10 16.0934 N/A
12:58 pm 12:58 Sunny 63 17.3 32 0 31 31 W 10 17 30.24 1024 10 16.0934 N/A
1:58 pm 13:58 Sunny 64 17.9 33 0.4 31 31 WNW 9 15 30.22 1023 10 16.0934 N/A
2:58 pm 14:58 Sunny 66 18.8 32 0.2 29 29 W 9 15 30.2 1023 10 16.0934 N/A
3:58 pm 15:58 Sunny 67 19.3 30 -1.2 25 25 W 8 13 30.18 1022 10 16.0934 N/A
4:58 pm 16:58 Sunny 69 20.3 31 -0.6 25 25 Calm 30.16 1021 10 16.0934 N/A
5:58 pm 17:58 Sunny 67 19.7 31 -0.5 26 26 SW 3 6 30.16 1021 10 16.0934 N/A
6:58 pm 18:58 Sunny 66 19.1 34 1.2 30 30 SSE 5 7 30.14 1021 10 16.0934 N/A
7:58 pm 19:58 Clear 57 13.9 38 3.4 49 49 ESE 13 20 30.15 1021 10 16.0934 N/A
8:58 pm 20:58 Mostly Clear 54 12 39 3.9 58 58 SSE 9 15 30.15 1021 10 16.0934 N/A
9:58 pm 21:58 Clear 53 11.8 39 3.8 58 58 S 9 15 30.15 1021 10 16.0934 N/A
10:58 pm 22:58 Clear 48 8.9 40 4.3 73 73 SSW 7 11 30.15 1021 10 16.0934 N/A
11:58 pm 23:58 Clear 46 7.5 40 4.3 80 80 SW 10 17 30.15 1021 10 16.0934 N/A

Powered by AerisWeather